Moses Lake, WA

3:15 AM PDT on July 27, 2017 (GMT -0700)
Grant County International

Weather History for KMWH - October, 2012

Change the Weather History Date:

Monday, October 1, 2012

  Actual Average Record
Temperature  
Mean Temperature 61 °F 56 °F  
Max Temperature 80 °F 71 °F 84 °F (2003)
Min Temperature 41 °F 41 °F 30 °F (1983)
Degree Days  
Heating Degree Days 4 9  
Month to date heating degree days 4 9  
Since 1 July heating degree days 77 159  
Cooling Degree Days 0 0  
Month to date cooling degree days 0 0  
Year to date cooling degree days 719 614  
Growing Degree Days 10 (Base 50)    
Moisture  
Dew Point 37 °F    
Average Humidity 43    
Maximum Humidity 62    
Minimum Humidity 23    
Precipitation  
Precipitation 0.00 in 0.01 in 0.01 in (2003)
Month to date precipitation 0.00 0.01  
Year to date precipitation 5.58 5.83  
Sea Level Pressure  
Sea Level Pressure 30.13 in    
Wind  
Wind Speed 5 mph (West)    
Max Wind Speed 14 mph    
Max Gust Speed 17 mph    
Visibility 10 miles    
Events      
T = Trace of Precipitation, MM = Missing Value Source: NWS Daily Summary

Daily Weather History Graph

Daily Weather History Graph

Search for Another Location

Airport or City:

Trip Planner

Search our weather history database for the weather conditions in past years. The results will help you decide how hot, cold, wet, or windy it might be!

Date:

Astronomy

Oct. 01, 2012 Rise Set
Actual Time 6:56 AM PDT 6:35 PM PDT
Civil Twilight 6:26 AM PDT 7:06 PM PDT
Nautical Twilight 5:50 AM PDT 7:41 PM PDT
Astronomical Twilight 5:14 AM PDT 8:17 PM PDT
Moon 7:04 PM PDT (10/1) 8:41 AM PDT (10/1)
Length of Visible Light 12h 39m
Length of Day
11h 38m
Full, 97% of the Moon is Illuminated
Oct 1
Full
Oct 8
Last Quarter
Oct 15
New
Oct 21
First Quarter
Oct 29
Full

Hourly Weather History & Observations

Time (PDT) Temp. Windchill Dew Point Humidity Pressure Visibility Wind Dir Wind Speed Gust Speed Precip Events Conditions
12:52 AM 48.0 °F - 34.0 °F 58% 30.26 in 10.0 mi North 4.6 mph - N/A   Clear
1:52 AM 46.9 °F - 32.0 °F 56% 30.26 in 10.0 mi North 3.5 mph - N/A   Clear
2:52 AM 46.9 °F - 30.9 °F 54% 30.26 in 10.0 mi North 5.8 mph - N/A   Clear
3:52 AM 44.1 °F 41.5 °F 30.9 °F 60% 30.26 in 10.0 mi North 4.6 mph - N/A   Clear
4:52 AM 44.1 °F 41.5 °F 30.0 °F 58% 30.26 in 10.0 mi North 4.6 mph - N/A   Clear
5:52 AM 43.0 °F 41.3 °F 30.0 °F 60% 30.25 in 10.0 mi NNE 3.5 mph - N/A   Clear
6:52 AM 42.1 °F 40.2 °F 28.9 °F 60% 30.26 in 10.0 mi NNE 3.5 mph - N/A   Clear
7:52 AM 45.0 °F - 30.9 °F 58% 30.26 in 10.0 mi Calm Calm - N/A   Clear
8:52 AM 50.0 °F - 32.0 °F 50% 30.26 in 10.0 mi NNE 3.5 mph - N/A   Clear
9:52 AM 57.0 °F - 36.0 °F 45% 30.24 in 10.0 mi South 3.5 mph - N/A   Clear
10:52 AM 63.0 °F - 37.0 °F 38% 30.22 in 10.0 mi Calm Calm - N/A   Clear
11:52 AM 68.0 °F - 37.9 °F 33% 30.20 in 10.0 mi SW 3.5 mph - N/A   Clear
12:52 PM 72.0 °F - 37.0 °F 28% 30.17 in 9.0 mi South 8.1 mph - N/A   Clear
1:52 PM 75.0 °F - 39.0 °F 27% 30.13 in 7.0 mi SSW 6.9 mph - N/A   Clear
2:52 PM 78.8 °F - 39.2 °F 24% 30.09 in 8.0 mi SSW 3.5 mph - N/A   Clear
3:52 PM 79.0 °F - 37.9 °F 23% 30.04 in 10.0 mi South 10.4 mph - N/A   Clear
4:52 PM 78.1 °F - 39.0 °F 25% 30.01 in 10.0 mi SSW 8.1 mph - N/A   Partly Cloudy
5:52 PM 77.0 °F - 39.9 °F 26% 29.99 in 10.0 mi SSW 8.1 mph - N/A   Clear
6:52 PM 73.9 °F - 42.1 °F 32% 29.98 in 10.0 mi SSW 4.6 mph - N/A   Clear
7:52 PM 69.8 °F - 42.8 °F 38% 29.97 in 10.0 mi Calm Calm - N/A   Clear
8:52 PM 64.0 °F - 42.1 °F 45% 29.96 in 10.0 mi Calm Calm - N/A   Clear
9:52 PM 62.1 °F - 43.0 °F 50% 29.95 in 10.0 mi NW 4.6 mph - N/A   Clear
10:52 PM 63.0 °F - 45.0 °F 52% 29.94 in 9.0 mi WNW 4.6 mph - N/A   Clear
11:52 PM 64.9 °F - 46.9 °F 52% 29.92 in 10.0 mi SW 9.2 mph - N/A   Clear